Location: Gombori
(14.9797°N, 2.9419°W)
Time: 12:59:34
(UTC+00:00)

METEOR 2-17 DEB - Pass Details

Date: 01 June 2022
Orbit: 896 x 935 km, 82.5° (Epoch: 24 June)

Event Time Altitude Azimuth Distance (km) Brightness Sun altitude
Rises 22:05:12 0° 341° (NNW) 3,505 ? -41.9°
Reaches altitude 10° 22:07:50 10° 333° (NNW) 2,563 ? -42.4°
Enters shadow 22:09:59 21° 319° (NW) 1,891 ? -42.7°
